Powrót do katalogu

IRNSS 1G

AktywnyNawigacjaGEO
NORAD 41469·PAYLOAD·🇮🇳 India

Wystrzelony Apr 28, 2016 z Satish Dhawan Space Centre

Loading…

TLE

ŚwieżeSource: Space-Track

Epoka: Sep 14, 2026, 12:42 UTC

1 41469U 16027A   26257.52946205 -.00000343  00000-0  00000-0 0  9996
2 41469   5.4115  95.3950 0003861  48.0652 170.0027  1.00264205 38071

Śledź IRNSS 1G w czasie rzeczywistym z AllMySat

Download on the App Store